• In Czech Republic
  • List of Countries
  • For 7 days
  • Water Temperature
  • Satellite Maps
  • Weather Map
  • Weather Widgets
  • user-avatar
    Login

    Hourly Weather Alcorcon

    Today, 21 September, Friday

    Time Temperature Precipitation Wind Pressure Humidity
    00:00 +26°C° 0 mm 2 mps 703 mmHg 36%
    01:00 +25°C° 0 mm 2 mps 703 mmHg 37%
    02:00 +25°C° 0 mm 2 mps 703 mmHg 38%
    03:00 +24°C° 0 mm 2 mps 703 mmHg 39%
    04:00 +24°C° 0 mm 2 mps 703 mmHg 40%
    05:00 +23°C° 0 mm 2 mps 703 mmHg 41%
    06:00 +23°C° 0 mm 2 mps 703 mmHg 42%
    07:00 +24°C° 0 mm 1 mps 704 mmHg 38%
    08:00 +26°C° 0 mm 1 mps 704 mmHg 35%
    09:00 +27°C° 0 mm 1 mps 705 mmHg 32%
    10:00 +29°C° 0 mm 1 mps 705 mmHg 30%
    11:00 +30°C° 0 mm 1 mps 705 mmHg 28%
    12:00 +31°C° 0 mm 1 mps 705 mmHg 26%
    13:00 +31°C° 0 mm 1 mps 704 mmHg 25%
    14:00 +32°C° 0 mm 2 mps 704 mmHg 24%
    15:00 +32°C° 0 mm 2 mps 704 mmHg 23%
    16:00 +32°C° 0 mm 2 mps 704 mmHg 24%
    17:00 +31°C° 0 mm 1 mps 704 mmHg 26%
    18:00 +30°C° 0 mm 1 mps 704 mmHg 27%
    19:00 +29°C° 0 mm 1 mps 704 mmHg 28%
    20:00 +28°C° 0 mm 1 mps 704 mmHg 29%
    21:00 +27°C° 0 mm 1 mps 705 mmHg 31%
    22:00 +26°C° 0 mm 1 mps 705 mmHg 32%
    23:00 +26°C° 0 mm 2 mps 705 mmHg 34%

    Tomorrow, 22 September, Saturday

    Time Temperature Precipitation Wind Pressure Humidity
    00:00 +25°C° 0 mm 2 mps 705 mmHg 36%
    01:00 +25°C° 0 mm 2 mps 705 mmHg 39%
    02:00 +24°C° 0 mm 2 mps 705 mmHg 41%
    03:00 +23°C° 0 mm 2 mps 705 mmHg 44%
    04:00 +23°C° 0 mm 2 mps 705 mmHg 45%
    05:00 +23°C° 0 mm 2 mps 705 mmHg 47%
    06:00 +22°C° 0 mm 1 mps 705 mmHg 49%
    07:00 +24°C° 0 mm 1 mps 706 mmHg 46%
    08:00 +26°C° 0 mm 1 mps 706 mmHg 42%
    09:00 +27°C° 0 mm 1 mps 707 mmHg 39%
    10:00 +29°C° 0 mm 1 mps 707 mmHg 35%
    11:00 +30°C° 0 mm 1 mps 707 mmHg 31%
    12:00 +32°C° 0 mm 1 mps 707 mmHg 27%
    13:00 +32°C° 0 mm 1 mps 707 mmHg 25%
    14:00 +33°C° 0 mm 1 mps 706 mmHg 23%
    15:00 +33°C° 0 mm 1 mps 706 mmHg 22%
    16:00 +32°C° 0 mm 1 mps 706 mmHg 23%
    17:00 +32°C° 0 mm 1 mps 706 mmHg 25%
    18:00 +31°C° 0 mm 1 mps 706 mmHg 26%
    19:00 +30°C° 0 mm 1 mps 706 mmHg 27%
    20:00 +29°C° 0 mm 1 mps 707 mmHg 28%
    21:00 +28°C° 0 mm 1 mps 707 mmHg 30%
    22:00 +27°C° 0 mm 1 mps 707 mmHg 30%
    23:00 +27°C° 0 mm 1 mps 707 mmHg 31%

    Day after tomorrow, 23 September, Sunday

    Time Temperature Precipitation Wind Pressure Humidity
    00:00 +26°C° 0 mm 2 mps 707 mmHg 32%
    01:00 +26°C° 0 mm 2 mps 707 mmHg 33%
    02:00 +25°C° 0 mm 2 mps 706 mmHg 35%
    03:00 +25°C° 0 mm 2 mps 706 mmHg 36%
    04:00 +24°C° 0 mm 2 mps 706 mmHg 38%
    05:00 +24°C° 0 mm 2 mps 706 mmHg 39%
    06:00 +23°C° 0 mm 2 mps 706 mmHg 41%
    07:00 +25°C° 0 mm 2 mps 706 mmHg 38%
    08:00 +27°C° 0 mm 2 mps 707 mmHg 34%
    09:00 +29°C° 0 mm 2 mps 707 mmHg 31%
    10:00 +30°C° 0 mm 2 mps 707 mmHg 29%
    11:00 +31°C° 0 mm 2 mps 707 mmHg 26%
    12:00 +34°C° 0 mm 2 mps 707 mmHg 23%
    13:00 +34°C° 0 mm 2 mps 707 mmHg 22%
    14:00 +35°C° 0 mm 2 mps 706 mmHg 21%
    15:00 +35°C° 0 mm 2 mps 706 mmHg 20%
    16:00 +34°C° 0 mm 2 mps 706 mmHg 22%
    17:00 +32°C° 0 mm 1 mps 706 mmHg 23%
    18:00 +31°C° 0 mm 1 mps 705 mmHg 25%
    19:00 +30°C° 0 mm 1 mps 706 mmHg 26%
    20:00 +29°C° 0 mm 2 mps 706 mmHg 27%
    21:00 +28°C° 0 mm 2 mps 706 mmHg 28%
    22:00 +28°C° 0 mm 2 mps 706 mmHg 28%
    23:00 +27°C° 0 mm 1 mps 706 mmHg 29%

    24 September, Monday

    Time Temperature Precipitation Wind Pressure Humidity
    00:00 +26°C° 0 mm 1 mps 706 mmHg 30%
    01:00 +26°C° 0 mm 1 mps 706 mmHg 31%
    02:00 +25°C° 0 mm 2 mps 706 mmHg 32%
    03:00 +25°C° 0 mm 2 mps 706 mmHg 33%
    04:00 +24°C° 0 mm 2 mps 706 mmHg 35%
    05:00 +24°C° 0 mm 2 mps 706 mmHg 37%
    06:00 +23°C° 0 mm 2 mps 706 mmHg 39%
    07:00 +25°C° 0 mm 2 mps 706 mmHg 36%
    08:00 +27°C° 0 mm 2 mps 706 mmHg 32%
    09:00 +29°C° 0 mm 2 mps 707 mmHg 29%
    10:00 +30°C° 0 mm 2 mps 707 mmHg 26%
    11:00 +31°C° 0 mm 2 mps 706 mmHg 24%
    12:00 +34°C° 0 mm 2 mps 706 mmHg 22%
    13:00 +34°C° 0 mm 2 mps 706 mmHg 21%
    14:00 +35°C° 0 mm 2 mps 705 mmHg 20%
    15:00 +35°C° 0 mm 2 mps 705 mmHg 20%
    16:00 +34°C° 0 mm 2 mps 705 mmHg 21%
    17:00 +32°C° 0 mm 1 mps 704 mmHg 22%
    18:00 +31°C° 0 mm 1 mps 704 mmHg 24%
    19:00 +30°C° 0 mm 1 mps 705 mmHg 26%
    20:00 +29°C° 0 mm 2 mps 705 mmHg 27%
    21:00 +28°C° 0 mm 2 mps 705 mmHg 29%
    22:00 +27°C° 0 mm 2 mps 705 mmHg 33%
    23:00 +27°C° 0 mm 3 mps 705 mmHg 37%

    25 September, Tuesday

    Time Temperature Precipitation Wind Pressure Humidity
    00:00 +26°C° 0 mm 3 mps 705 mmHg 41%
    01:00 +25°C° 0 mm 3 mps 705 mmHg 43%
    02:00 +24°C° 0 mm 3 mps 705 mmHg 46%
    03:00 +24°C° 0 mm 3 mps 705 mmHg 48%
    04:00 +22°C° 0 mm 3 mps 705 mmHg 50%
    05:00 +22°C° 0 mm 3 mps 704 mmHg 51%
    06:00 +23°C° 0 mm 2 mps 704 mmHg 53%
    07:00 +24°C° 0 mm 3 mps 705 mmHg 48%
    08:00 +26°C° 0 mm 3 mps 705 mmHg 43%
    09:00 +27°C° 0 mm 3 mps 705 mmHg 38%
    10:00 +29°C° 0 mm 2 mps 705 mmHg 33%
    11:00 +31°C° 0 mm 2 mps 705 mmHg 28%
    12:00 +32°C° 0 mm 2 mps 705 mmHg 24%
    13:00 +34°C° 0 mm 2 mps 705 mmHg 23%
    14:00 +34°C° 0 mm 2 mps 704 mmHg 21%
    15:00 +34°C° 0 mm 1 mps 704 mmHg 20%
    16:00 +33°C° 0 mm 1 mps 704 mmHg 22%
    17:00 +32°C° 0 mm 1 mps 704 mmHg 23%
    18:00 +31°C° 0 mm 1 mps 704 mmHg 25%
    19:00 +30°C° 0 mm 2 mps 704 mmHg 28%
    20:00 +29°C° 0 mm 3 mps 705 mmHg 31%
    21:00 +28°C° 0 mm 4 mps 705 mmHg 35%
    22:00 +27°C° 0 mm 5 mps 705 mmHg 44%
    23:00 +26°C° 0 mm 6 mps 705 mmHg 54%

    26 September, Wednesday

    Time Temperature Precipitation Wind Pressure Humidity
    00:00 +24°C° 0 mm 6 mps 706 mmHg 64%
    01:00 +23°C° 0.1 mm 6 mps 706 mmHg 66%
    02:00 +23°C° 0.1 mm 6 mps 706 mmHg 69%
    03:00 +22°C° 0.1 mm 6 mps 706 mmHg 71%
    04:00 +22°C° 0.1 mm 6 mps 707 mmHg 71%
    05:00 +21°C° 0.1 mm 6 mps 707 mmHg 70%
    06:00 +21°C° 0.1 mm 6 mps 708 mmHg 70%
    07:00 +21°C° 0 mm 6 mps 708 mmHg 66%
    08:00 +22°C° 0 mm 6 mps 708 mmHg 63%
    09:00 +22°C° 0 mm 6 mps 709 mmHg 59%
    10:00 +23°C° 0 mm 6 mps 709 mmHg 54%
    11:00 +24°C° 0 mm 6 mps 709 mmHg 49%
    12:00 +26°C° 0 mm 6 mps 709 mmHg 44%
    13:00 +27°C° 0 mm 6 mps 709 mmHg 41%
    14:00 +27°C° 0 mm 6 mps 709 mmHg 38%
    15:00 +28°C° 0 mm 6 mps 709 mmHg 36%
    16:00 +26°C° 0 mm 6 mps 709 mmHg 39%
    17:00 +24°C° 0 mm 6 mps 709 mmHg 42%
    18:00 +23°C° 0 mm 6 mps 710 mmHg 46%
    19:00 +22°C° 0 mm 6 mps 710 mmHg 50%
    20:00 +21°C° 0 mm 5 mps 710 mmHg 55%
    21:00 +20°C° 0 mm 5 mps 711 mmHg 59%
    22:00 +19°C° 0 mm 4 mps 711 mmHg 61%
    23:00 +18°C° 0 mm 3 mps 711 mmHg 64%
    Show more